When you browse on this site, cookies collect data to enhance your experience and personalize the content and advertising you see.
Visit our Privacy Policy to learn more. By continuing to use the site, you agree to this use of cookies and data.
  • Em Portugal
  • Lista de países
  • Para 7 dias
  • Temperatura da água
  • Mapa do tempo
  • Widgets de tempo
  • user-avatar
    Iniciar Sessão

    Previsão horária em Shuvary

    Hoje, 25 Maio, Segunda-feira

    Tempo Temperatura Precipitação Vento Pressão Humidade
    00:00 +5°C° 0 mm 3 m/s 748 mmHg 93%
    01:00 +5°C° 0 mm 3 m/s 749 mmHg 93%
    02:00 +4°C° 0 mm 3 m/s 749 mmHg 93%
    03:00 +5°C° 0 mm 2 m/s 749 mmHg 94%
    04:00 +6°C° 0 mm 2 m/s 750 mmHg 93%
    05:00 +7°C° 0 mm 2 m/s 750 mmHg 92%
    06:00 +7°C° 0 mm 3 m/s 750 mmHg 91%
    07:00 +9°C° 0 mm 3 m/s 751 mmHg 86%
    08:00 +11°C° 0 mm 3 m/s 751 mmHg 81%
    09:00 +12°C° 0 mm 3 m/s 752 mmHg 76%
    10:00 +13°C° 0.2 mm 4 m/s 752 mmHg 72%
    11:00 +14°C° 0.2 mm 4 m/s 752 mmHg 68%
    12:00 +15°C° 0.2 mm 4 m/s 752 mmHg 64%
    13:00 +16°C° 0 mm 3 m/s 752 mmHg 61%
    14:00 +17°C° 0 mm 3 m/s 752 mmHg 59%
    15:00 +17°C° 0 mm 2 m/s 752 mmHg 56%
    16:00 +17°C° 0.1 mm 2 m/s 752 mmHg 61%
    17:00 +16°C° 0.1 mm 2 m/s 753 mmHg 66%
    18:00 +16°C° 0.1 mm 1 m/s 753 mmHg 71%
    19:00 +14°C° 0 mm 1 m/s 753 mmHg 74%
    20:00 +13°C° 0 mm 1 m/s 753 mmHg 77%
    21:00 +10°C° 0 mm 0 m/s 754 mmHg 80%
    22:00 +9°C° 0 mm 0 m/s 754 mmHg 81%
    23:00 +10°C° 0 mm 1 m/s 754 mmHg 82%

    Amanhã, 26 Maio, Terça-feira

    Tempo Temperatura Precipitação Vento Pressão Humidade
    00:00 +10°C° 0 mm 1 m/s 754 mmHg 83%
    01:00 +10°C° 0 mm 1 m/s 754 mmHg 83%
    02:00 +10°C° 0 mm 1 m/s 754 mmHg 83%
    03:00 +10°C° 0 mm 1 m/s 755 mmHg 83%
    04:00 +10°C° 0 mm 1 m/s 755 mmHg 84%
    05:00 +11°C° 0 mm 1 m/s 755 mmHg 84%
    06:00 +12°C° 0 mm 2 m/s 755 mmHg 85%
    07:00 +13°C° 0 mm 2 m/s 755 mmHg 81%
    08:00 +13°C° 0 mm 3 m/s 754 mmHg 78%
    09:00 +14°C° 0 mm 3 m/s 754 mmHg 75%
    10:00 +16°C° 0.1 mm 3 m/s 754 mmHg 71%
    11:00 +15°C° 0.1 mm 4 m/s 754 mmHg 68%
    12:00 +17°C° 0.1 mm 4 m/s 754 mmHg 64%
    13:00 +17°C° 0.3 mm 4 m/s 753 mmHg 69%
    14:00 +15°C° 0.3 mm 4 m/s 753 mmHg 75%
    15:00 +14°C° 0.3 mm 4 m/s 753 mmHg 80%
    16:00 +14°C° 0.4 mm 4 m/s 752 mmHg 82%
    17:00 +14°C° 0.4 mm 4 m/s 752 mmHg 84%
    18:00 +13°C° 0.4 mm 4 m/s 751 mmHg 86%
    19:00 +13°C° 0.4 mm 5 m/s 751 mmHg 87%
    20:00 +13°C° 0.4 mm 5 m/s 750 mmHg 87%
    21:00 +12°C° 0.4 mm 5 m/s 750 mmHg 88%
    22:00 +12°C° 0 mm 5 m/s 749 mmHg 88%
    23:00 +12°C° 0 mm 5 m/s 749 mmHg 89%

    Depois de amanhã, 27 Maio, Quarta-feira

    Tempo Temperatura Precipitação Vento Pressão Humidade
    00:00 +10°C° 0 mm 5 m/s 748 mmHg 89%
    01:00 +10°C° 0.4 mm 5 m/s 748 mmHg 90%
    02:00 +10°C° 0.4 mm 5 m/s 747 mmHg 91%
    03:00 +9°C° 0.4 mm 5 m/s 746 mmHg 92%
    04:00 +9°C° 2.4 mm 6 m/s 746 mmHg 93%
    05:00 +9°C° 2.4 mm 6 m/s 746 mmHg 94%
    06:00 +9°C° 2.4 mm 7 m/s 745 mmHg 95%
    07:00 +9°C° 0.1 mm 7 m/s 746 mmHg 93%
    08:00 +10°C° 0.1 mm 6 m/s 746 mmHg 92%
    09:00 +10°C° 0.1 mm 5 m/s 746 mmHg 90%
    10:00 +10°C° 0 mm 5 m/s 747 mmHg 89%
    11:00 +12°C° 0 mm 5 m/s 747 mmHg 88%
    12:00 +12°C° 0 mm 4 m/s 747 mmHg 86%
    13:00 +12°C° 0 mm 4 m/s 747 mmHg 86%
    14:00 +13°C° 0 mm 4 m/s 748 mmHg 85%
    15:00 +13°C° 0 mm 3 m/s 748 mmHg 84%
    16:00 +12°C° 0 mm 3 m/s 748 mmHg 85%
    17:00 +12°C° 0 mm 3 m/s 748 mmHg 86%
    18:00 +12°C° 0 mm 3 m/s 748 mmHg 87%
    19:00 +11°C° 0 mm 3 m/s 749 mmHg 90%
    20:00 +10°C° 0 mm 2 m/s 749 mmHg 92%
    21:00 +9°C° 0 mm 2 m/s 749 mmHg 95%
    22:00 +8°C° 0 mm 2 m/s 749 mmHg 96%
    23:00 +9°C° 0 mm 1 m/s 749 mmHg 96%

    28 Maio, Quinta-feira

    Tempo Temperatura Precipitação Vento Pressão Humidade
    00:00 +8°C° 0 mm 1 m/s 749 mmHg 97%
    01:00 +8°C° 0 mm 1 m/s 749 mmHg 96%
    02:00 +7°C° 0 mm 2 m/s 749 mmHg 96%
    03:00 +6°C° 0 mm 2 m/s 749 mmHg 96%
    04:00 +8°C° 0 mm 1 m/s 749 mmHg 94%
    05:00 +9°C° 0 mm 1 m/s 749 mmHg 92%
    06:00 +10°C° 0 mm 1 m/s 750 mmHg 90%
    07:00 +12°C° 0 mm 1 m/s 750 mmHg 84%
    08:00 +14°C° 0 mm 1 m/s 750 mmHg 78%
    09:00 +16°C° 0 mm 1 m/s 750 mmHg 73%
    10:00 +18°C° 0 mm 1 m/s 750 mmHg 69%
    11:00 +17°C° 0 mm 0 m/s 750 mmHg 65%
    12:00 +18°C° 0 mm 0 m/s 749 mmHg 62%
    13:00 +20°C° 0 mm 1 m/s 749 mmHg 61%
    14:00 +21°C° 0 mm 1 m/s 749 mmHg 60%
    15:00 +21°C° 0 mm 1 m/s 749 mmHg 59%
    16:00 +21°C° 0 mm 1 m/s 749 mmHg 64%
    17:00 +19°C° 0 mm 2 m/s 749 mmHg 69%
    18:00 +19°C° 0 mm 2 m/s 749 mmHg 73%
    19:00 +17°C° 0 mm 2 m/s 749 mmHg 77%
    20:00 +16°C° 0 mm 2 m/s 749 mmHg 81%
    21:00 +13°C° 0 mm 3 m/s 749 mmHg 85%
    22:00 +13°C° 0 mm 3 m/s 749 mmHg 86%
    23:00 +13°C° 0 mm 4 m/s 749 mmHg 87%

    29 Maio, Sexta-feira

    Tempo Temperatura Precipitação Vento Pressão Humidade
    00:00 +13°C° 0 mm 4 m/s 749 mmHg 87%
    01:00 +12°C° 0 mm 4 m/s 749 mmHg 87%
    02:00 +12°C° 0 mm 4 m/s 748 mmHg 88%
    03:00 +12°C° 0 mm 4 m/s 748 mmHg 88%
    04:00 +12°C° 0 mm 5 m/s 748 mmHg 88%
    05:00 +13°C° 0 mm 5 m/s 748 mmHg 87%
    06:00 +13°C° 0 mm 5 m/s 748 mmHg 87%
    07:00 +15°C° 0 mm 5 m/s 748 mmHg 84%
    08:00 +16°C° 0 mm 5 m/s 748 mmHg 81%
    09:00 +19°C° 0 mm 5 m/s 748 mmHg 77%
    10:00 +20°C° 0 mm 5 m/s 748 mmHg 75%
    11:00 +21°C° 0 mm 5 m/s 748 mmHg 72%
    12:00 +22°C° 0 mm 5 m/s 748 mmHg 70%
    13:00 +22°C° 0 mm 5 m/s 747 mmHg 69%
    14:00 +23°C° 0 mm 5 m/s 747 mmHg 68%
    15:00 +23°C° 0 mm 5 m/s 747 mmHg 68%
    16:00 +23°C° 0 mm 5 m/s 747 mmHg 71%
    17:00 +22°C° 0 mm 4 m/s 747 mmHg 74%
    18:00 +22°C° 0 mm 4 m/s 746 mmHg 78%
    19:00 +20°C° 0 mm 4 m/s 746 mmHg 81%
    20:00 +18°C° 0 mm 4 m/s 747 mmHg 84%
    21:00 +17°C° 0 mm 4 m/s 747 mmHg 87%
    22:00 +15°C° 0 mm 4 m/s 747 mmHg 88%
    23:00 +14°C° 0 mm 4 m/s 747 mmHg 89%

    30 Maio, Sábado

    Tempo Temperatura Precipitação Vento Pressão Humidade
    00:00 +14°C° 0 mm 4 m/s 747 mmHg 91%
    01:00 +13°C° 0 mm 4 m/s 746 mmHg 92%
    02:00 +13°C° 0 mm 4 m/s 746 mmHg 93%
    03:00 +12°C° 0 mm 3 m/s 746 mmHg 95%
    04:00 +13°C° 0 mm 4 m/s 746 mmHg 93%
    05:00 +14°C° 0 mm 4 m/s 746 mmHg 91%
    06:00 +14°C° 0 mm 4 m/s 746 mmHg 88%
    07:00 +16°C° 0 mm 5 m/s 746 mmHg 83%
    08:00 +17°C° 0 mm 5 m/s 745 mmHg 77%
    09:00 +19°C° 0 mm 6 m/s 745 mmHg 72%
    10:00 +21°C° 0 mm 6 m/s 745 mmHg 69%
    11:00 +22°C° 0 mm 6 m/s 745 mmHg 67%
    12:00 +23°C° 0 mm 7 m/s 744 mmHg 64%
    13:00 +24°C° 0 mm 7 m/s 744 mmHg 65%
    14:00 +24°C° 0 mm 7 m/s 743 mmHg 65%
    15:00 +24°C° 0 mm 7 m/s 743 mmHg 66%
    16:00 +24°C° 0 mm 6 m/s 743 mmHg 70%
    17:00 +25°C° 0 mm 5 m/s 742 mmHg 75%
    18:00 +23°C° 0 mm 4 m/s 742 mmHg 79%
    19:00 +22°C° 0.2 mm 4 m/s 742 mmHg 83%
    20:00 +22°C° 0.2 mm 5 m/s 742 mmHg 86%
    21:00 +21°C° 0.2 mm 5 m/s 741 mmHg 90%
    22:00 +20°C° 0.4 mm 5 m/s 741 mmHg 91%
    23:00 +20°C° 0.4 mm 5 m/s 740 mmHg 92%
    Mostrar mais